TimeEDT,TemperatureF,Dew PointF,Humidity,Sea Level PressureIn,VisibilityMPH,Wind Direction,Wind SpeedMPH,Gust SpeedMPH,PrecipitationIn,Events,Conditions,WindDirDegrees,DateUTC
12:15 AM,37.9,32.5,81,29.63,10.0,WNW,4.6,-,N/A,,Overcast,290,2012-11-03 04:15:00
12:35 AM,37.8,32.5,81,29.63,10.0,WNW,4.6,-,N/A,,Overcast,290,2012-11-03 04:35:00
12:55 AM,37.8,32.9,83,29.63,10.0,WNW,8.1,-,N/A,,Overcast,290,2012-11-03 04:55:00
1:15 AM,37.9,32.5,81,29.63,10.0,WNW,6.9,-,N/A,,Overcast,300,2012-11-03 05:15:00
1:35 AM,37.8,32.7,82,29.63,10.0,WNW,4.6,-,N/A,,Overcast,290,2012-11-03 05:35:00
1:55 AM,37.6,32.9,83,29.63,10.0,WNW,3.5,-,N/A,,Overcast,290,2012-11-03 05:55:00
2:15 AM,37.8,32.9,83,29.63,10.0,WNW,5.8,-,N/A,,Overcast,300,2012-11-03 06:15:00
2:35 AM,37.9,32.9,82,29.63,10.0,WNW,4.6,-,N/A,,Overcast,290,2012-11-03 06:35:00
2:55 AM,38.3,33.3,82,29.64,10.0,WNW,4.6,-,N/A,,Overcast,290,2012-11-03 06:55:00
3:15 AM,38.5,33.4,82,29.64,10.0,West,4.6,-,N/A,,Overcast,280,2012-11-03 07:15:00
3:35 AM,38.7,33.4,81,29.64,10.0,West,5.8,-,N/A,,Overcast,280,2012-11-03 07:35:00
3:55 AM,38.7,33.4,81,29.64,10.0,West,5.8,-,N/A,,Overcast,280,2012-11-03 07:55:00
4:15 AM,38.7,33.4,81,29.64,10.0,West,4.6,-,N/A,,Overcast,280,2012-11-03 08:15:00
4:35 AM,38.7,34.0,83,29.65,10.0,Calm,Calm,-,N/A,,Overcast,0,2012-11-03 08:35:00
4:55 AM,38.7,33.8,83,29.65,10.0,WNW,3.5,-,N/A,,Overcast,290,2012-11-03 08:55:00
5:15 AM,38.7,34.0,83,29.66,10.0,WNW,4.6,-,N/A,,Overcast,300,2012-11-03 09:15:00
5:55 AM,38.5,33.8,83,29.66,10.0,West,5.8,-,N/A,,Overcast,280,2012-11-03 09:55:00
6:15 AM,37.8,33.3,84,29.67,10.0,West,9.2,-,N/A,,Overcast,280,2012-11-03 10:15:00
6:35 AM,37.4,33.1,84,29.67,10.0,WNW,8.1,-,N/A,,Overcast,290,2012-11-03 10:35:00
6:55 AM,37.0,32.9,85,29.68,10.0,WNW,3.5,-,N/A,,Overcast,290,2012-11-03 10:55:00
7:15 AM,36.9,32.9,86,29.68,10.0,WNW,8.1,-,N/A,,Overcast,290,2012-11-03 11:15:00
7:35 AM,36.9,32.7,85,29.69,10.0,West,6.9,-,N/A,,Mostly Cloudy,280,2012-11-03 11:35:00
7:55 AM,36.7,32.4,84,29.70,10.0,WNW,9.2,-,N/A,,Overcast,290,2012-11-03 11:55:00
8:15 AM,36.7,32.0,83,29.70,10.0,West,9.2,-,N/A,,Overcast,280,2012-11-03 12:15:00
8:35 AM,36.9,32.0,83,29.71,10.0,West,4.6,-,N/A,,Overcast,280,2012-11-03 12:35:00
8:55 AM,37.0,32.0,82,29.72,10.0,Calm,Calm,-,N/A,,Overcast,0,2012-11-03 12:55:00
9:15 AM,37.4,32.0,81,29.72,10.0,West,3.5,-,N/A,,Overcast,260,2012-11-03 13:15:00
9:35 AM,37.6,32.0,80,29.72,10.0,Calm,Calm,-,N/A,,Overcast,0,2012-11-03 13:35:00
9:55 AM,37.8,32.0,80,29.73,10.0,West,5.8,-,N/A,,Overcast,270,2012-11-03 13:55:00
10:15 AM,38.5,32.0,78,29.74,10.0,West,6.9,-,N/A,,Overcast,280,2012-11-03 14:15:00
10:35 AM,38.7,32.0,77,29.74,10.0,West,8.1,-,N/A,,Overcast,280,2012-11-03 14:35:00
10:55 AM,38.3,31.6,77,29.74,10.0,West,9.2,-,N/A,,Overcast,280,2012-11-03 14:55:00
11:15 AM,38.7,31.1,74,29.75,10.0,WNW,10.4,-,N/A,,Overcast,290,2012-11-03 15:15:00
11:35 AM,38.7,31.1,74,29.74,10.0,West,11.5,16.1,N/A,,Overcast,270,2012-11-03 15:35:00
11:55 AM,38.8,31.3,74,29.74,10.0,WNW,6.9,-,N/A,,Overcast,290,2012-11-03 15:55:00
12:15 PM,38.7,31.5,75,29.74,10.0,West,9.2,-,N/A,,Overcast,280,2012-11-03 16:15:00
12:35 PM,38.7,30.9,74,29.74,10.0,West,9.2,-,N/A,,Overcast,280,2012-11-03 16:35:00
12:55 PM,39.2,31.6,74,29.74,10.0,West,10.4,-,N/A,,Overcast,270,2012-11-03 16:55:00
1:15 PM,38.7,32.0,77,29.74,5.0,West,12.7,18.4,N/A,,Haze,280,2012-11-03 17:15:00
1:35 PM,39.4,32.0,75,29.74,10.0,WNW,8.1,-,N/A,,Overcast,290,2012-11-03 17:35:00
1:55 PM,39.6,32.0,74,29.74,10.0,WNW,8.1,17.3,N/A,,Overcast,290,2012-11-03 17:55:00
2:15 PM,39.0,31.5,74,29.74,10.0,West,12.7,18.4,N/A,,Overcast,280,2012-11-03 18:15:00
2:35 PM,39.6,31.1,72,29.74,10.0,West,9.2,-,N/A,,Overcast,280,2012-11-03 18:35:00
2:55 PM,39.6,30.9,71,29.74,10.0,WNW,12.7,23.0,N/A,,Overcast,290,2012-11-03 18:55:00
3:15 PM,39.6,30.6,70,29.74,10.0,West,12.7,24.2,N/A,,Overcast,280,2012-11-03 19:15:00
3:35 PM,39.4,30.7,71,29.75,10.0,WNW,10.4,23.0,N/A,,Overcast,290,2012-11-03 19:35:00
3:55 PM,39.9,31.6,72,29.75,10.0,WNW,13.8,18.4,N/A,,Overcast,300,2012-11-03 19:55:00
4:15 PM,38.8,31.8,76,29.76,10.0,WNW,8.1,-,N/A,,Overcast,300,2012-11-03 20:15:00
4:35 PM,38.7,31.8,76,29.75,10.0,WNW,8.1,-,N/A,,Mostly Cloudy,290,2012-11-03 20:35:00
4:55 PM,38.7,31.6,76,29.76,10.0,WNW,10.4,18.4,N/A,,Scattered Clouds,290,2012-11-03 20:55:00
5:15 PM,38.5,31.8,77,29.76,10.0,WNW,9.2,17.3,N/A,,Mostly Cloudy,300,2012-11-03 21:15:00
5:35 PM,37.8,31.8,79,29.77,10.0,WNW,10.4,-,N/A,,Overcast,290,2012-11-03 21:35:00
5:55 PM,37.2,31.8,81,29.77,10.0,WNW,10.4,-,N/A,,Overcast,300,2012-11-03 21:55:00
6:15 PM,36.9,32.0,83,29.78,10.0,WNW,5.8,-,N/A,,Overcast,300,2012-11-03 22:15:00
6:35 PM,36.5,32.2,84,29.78,7.0,WNW,5.8,-,N/A,Snow,Light Snow,300,2012-11-03 22:35:00
6:55 PM,36.5,32.2,84,29.78,7.0,NW,5.8,-,N/A,Snow,Light Snow,320,2012-11-03 22:55:00
7:15 PM,36.5,32.4,85,29.79,7.0,NW,6.9,-,N/A,Snow,Light Snow,310,2012-11-03 23:15:00
7:35 PM,36.1,32.4,86,29.79,7.0,NW,4.6,-,N/A,Snow,Light Snow,310,2012-11-03 23:35:00
7:55 PM,36.1,32.5,87,29.79,7.0,WNW,5.8,-,N/A,,Overcast,290,2012-11-03 23:55:00
8:15 PM,36.0,32.5,87,29.80,7.0,WNW,5.8,-,N/A,,Overcast,290,2012-11-04 00:15:00
8:35 PM,36.0,32.7,88,29.80,10.0,WNW,4.6,-,N/A,,Overcast,300,2012-11-04 00:35:00
8:55 PM,36.0,32.5,87,29.80,10.0,NW,4.6,-,N/A,,Overcast,310,2012-11-04 00:55:00
9:15 PM,36.1,32.7,87,29.80,10.0,NW,3.5,-,N/A,Rain,Light Rain,320,2012-11-04 01:15:00
9:35 PM,36.1,32.9,88,29.81,10.0,WNW,6.9,-,N/A,,Overcast,290,2012-11-04 01:35:00
9:55 PM,36.1,32.7,87,29.81,10.0,WNW,5.8,-,N/A,,Overcast,300,2012-11-04 01:55:00
10:15 PM,36.0,32.5,87,29.81,7.0,WNW,5.8,-,N/A,,Overcast,300,2012-11-04 02:15:00
10:35 PM,35.6,32.4,88,29.81,5.0,WNW,4.6,-,N/A,,Overcast,300,2012-11-04 02:35:00
10:55 PM,35.8,32.7,89,29.81,5.0,NW,4.6,-,N/A,,Overcast,310,2012-11-04 02:55:00
11:15 PM,36.0,32.9,89,29.81,5.0,WNW,5.8,-,N/A,,Overcast,300,2012-11-04 03:15:00
11:35 PM,36.1,32.9,88,29.82,7.0,WNW,3.5,-,N/A,,Overcast,300,2012-11-04 03:35:00
11:55 PM,36.1,32.9,88,29.82,7.0,WNW,4.6,-,N/A,,Overcast,300,2012-11-04 03:55:00